COSMOS 711

导读 | 星芒AI

COSMOS 711 是苏联于1975年2月16日发射的一颗军用侦察卫星,任务涉及地球观测与情报收集。该卫星属于“宇宙”系列,具体任务细节未公开。其轨道参数和运行时间表明其主要用于军事监视。尽管苏联官方未提供详细信息,但国际卫星追踪社区对其轨道和行为进行了持续监测。COSMOS 711 最终在轨失效,成为太空碎片的一部分。

Basic Information
目录编号:
7678
目录名称:
COSMOS 711
国际标识:
1975-016A
轨道中心:
EARTH
卫星名称:
COSMOS 711
卫星全名:
--
卫星状态:
在轨 (已飞行18632 天)
发射日期:
1975-02-28 UTC
国别 :
俄罗斯(独联体) (CIS)
星等 :
--
Orbit Information
数据来源 国际轨道数据
星历时间: 2026-03-04T20:26:25+0800
7小时前
查看轨道信息
半长轴: 7854.854km
偏心率: 0.0019172
轨道倾角: 74.003°
近地点辐角 76.257°
升交点赤经 198.167°
平近点角 353.673°
近地点: 1461.657km
远地点: 1491.777km
周期: 115.469分钟
每日圈数: 12.470837
Detailed Information
使用方式:
暂无
2D Orbit Map
3D Orbit Map
Orbit Altitude Analysis Chart
Orbit Inclination Analysis Chart
Orbit Comprehensive Analysis Chart
View Comprehensive Chart